Date,TemperatureHighF,TemperatureAvgF,TemperatureLowF,DewpointHighF,DewpointAvgF,DewpointLowF,HumidityHigh,HumidityAvg,HumidityLow,PressureMaxIn,PressureMinIn,WindSpeedMaxMPH,WindSpeedAvgMPH,GustSpeedMaxMPH,PrecipitationSumIn
2013-1-1,34,29,17,28,18,7,78,64,49,29.90,29.65,5,2,21,0.00
2013-1-2,26,16,7,16,6,-5,76,64,54,30.09,29.88,3,1,15,0.00
2013-1-3,22,11,3,4,-1,-6,73,58,40,30.11,29.99,3,1,12,0.00
2013-1-4,37,22,5,24,15,1,88,73,59,29.98,29.76,4,1,10,0.00
2013-1-5,38,31,19,24,20,15,83,65,45,30.24,29.77,4,1,20,0.00
2013-1-6,40,28,19,30,24,15,90,86,64,30.21,29.90,3,0,7,0.01
2013-1-7,35,31,17,28,24,12,92,76,48,30.38,29.93,7,1,6,0.01
2013-1-8,44,28,15,29,20,11,92,77,51,30.35,30.21,9,1,4,0.14
2013-1-9,40,28,20,30,23,18,93,83,61,30.40,30.03,4,0,4,0.10
2013-1-10,44,41,39,31,28,25,66,59,52,30.40,29.96,7,3,21,0.25
2013-1-21,22,22,21,19,18,18,88,88,87,29.85,29.85,0,0,0,0.00
2013-1-22,25,20,11,19,11,0,89,71,37,30.05,29.75,4,1,18,0.00
2013-1-23,11,8,2,3,-5,-12,78,56,38,30.13,30.03,11,1,10,0.00
2013-1-24,16,6,-1,-6,-10,-14,60,48,34,30.19,30.03,17,2,21,0.00
2013-1-25,21,13,6,3,-4,-7,58,46,32,30.27,30.06,12,2,17,0.00
2013-1-26,18,14,10,11,8,0,92,78,45,30.07,30.00,5,0,17,0.00
2013-1-27,27,19,12,5,0,-5,67,46,27,30.43,30.19,4,2,19,0.00
2013-1-28,29,22,14,22,11,-3,90,65,33,30.45,30.03,2,0,7,0.00
2013-1-29,34,28,23,31,25,21,91,89,82,30.18,30.02,2,0,2,0.12
2013-2-7,26,21,14,6,0,-5,55,41,25,30.52,30.26,3,1,13,0.00
2013-2-8,23,18,16,16,13,6,91,82,48,30.50,29.80,4,1,16,0.00
2013-2-9,22,18,14,20,16,11,93,91,86,30.14,29.62,5,3,23,0.00
2013-2-10,35,21,11,22,14,7,86,75,51,30.37,30.15,2,1,13,0.07
2013-2-11,33,24,12,32,21,8,96,90,81,30.34,29.60,1,0,3,0.00
2013-2-12,44,37,33,33,31,29,96,81,61,29.83,29.57,4,1,16,0.36
2013-2-13,42,34,26,29,25,24,90,73,52,29.84,29.72,2,0,10,0.10
2013-2-14,42,33,26,26,24,22,87,71,49,29.96,29.68,8,1,4,0.05
2013-2-15,51,34,21,34,27,18,98,77,51,29.98,29.86,9,1,0,0.01
2013-2-16,34,31,28,31,29,26,94,90,79,29.94,29.89,6,0,0,0.00
2013-2-18,31,22,14,7,3,-1,63,46,28,30.09,29.60,6,4,26,0.01
2013-2-19,42,32,20,38,18,0,95,59,36,30.13,29.59,3,1,10,0.31
2013-2-20,38,33,27,37,24,16,96,71,52,29.70,29.49,4,2,16,0.02
2013-2-21,30,26,23,16,14,12,70,61,51,30.11,29.72,5,2,19,0.00
2013-2-22,41,30,17,26,20,14,89,68,45,30.38,30.13,2,1,9,0.00
2013-2-23,38,33,29,33,29,25,94,84,71,30.33,29.98,2,0,7,0.01
2013-2-24,35,33,31,34,32,29,96,96,94,29.97,29.72,1,0,7,0.33
2013-2-25,40,33,29,36,31,28,96,91,76,30.15,29.88,3,0,3,0.45
2013-2-26,41,34,30,37,32,28,96,91,78,30.34,30.20,1,0,5,0.07
2013-2-27,38,36,31,36,35,30,96,95,86,30.20,29.60,1,1,7,0.19
2013-2-28,49,40,34,38,36,33,96,87,66,29.61,29.51,1,1,7,0.17
2013-3-1,41,36,34,34,32,30,100,84,72,29.66,29.52,1,0,8,0.00
2013-3-2,45,38,32,32,29,27,83,72,57,29.66,29.58,1,0,8,0.00
2013-3-3,42,35,30,35,30,26,92,81,68,29.63,29.54,9,1,9,0.06
2013-3-4,40,34,30,28,25,22,78,70,59,29.71,29.55,14,3,20,0.00
2013-3-5,46,36,30,34,26,22,75,69,56,29.97,29.71,9,1,11,0.00
2013-3-6,36,34,32,34,33,30,96,94,86,30.15,30.05,4,1,17,0.22
2013-3-7,36,32,31,32,29,27,95,88,81,30.13,30.02,8,2,10,0.13
2013-3-8,41,34,29,32,29,24,95,83,59,30.16,29.97,6,1,0,0.29
2013-3-9,46,35,28,26,22,20,76,61,44,30.24,30.15,6,0,0,0.11
2013-3-10,44,33,21,34,28,19,93,82,65,30.41,30.29,2,0,8,0.01
2013-3-11,52,40,29,39,33,27,95,77,48,30.32,30.13,4,1,9,0.00
2013-3-12,52,44,38,50,42,36,97,93,87,30.14,29.70,7,0,8,0.42
2013-3-13,54,46,38,50,39,30,97,79,45,29.73,29.67,10,2,10,0.02
2013-3-26,53,41,31,30,25,20,83,55,29,29.75,29.55,2,1,12,0.00
2013-3-27,56,42,29,34,27,22,79,56,34,29.85,29.72,4,1,16,0.00
2013-3-28,50,42,34,37,34,31,94,73,52,29.99,29.85,1,0,8,0.03
2013-3-29,60,46,37,38,34,30,80,63,41,30.02,29.95,2,1,10,0.00
2013-3-30,60,47,35,34,27,17,77,51,23,30.07,29.98,2,1,11,0.00
2013-3-31,60,43,25,39,26,21,86,55,25,30.11,29.83,5,2,16,0.00
2013-4-1,60,47,38,45,38,15,96,75,37,29.80,29.47,5,2,19,0.51
2013-4-2,40,34,28,17,14,11,57,45,32,29.88,29.73,7,2,16,1.65
2013-4-3,48,37,28,18,12,6,59,39,18,30.08,29.87,15,3,15,0.00
2013-4-4,57,41,29,22,16,10,60,38,18,30.26,30.00,9,2,11,0.00
2013-4-5,64,48,38,30,26,18,71,46,18,30.00,29.61,11,3,11,0.00
2013-4-6,47,37,29,23,11,5,55,36,20,30.31,29.83,5,3,25,0.00
2013-4-7,56,41,23,38,24,13,79,54,31,30.32,29.96,7,3,17,0.00
2013-4-8,66,50,38,41,37,34,95,67,31,30.09,29.92,4,1,17,0.00
2013-4-9,68,51,43,53,44,37,95,78,46,30.08,29.84,15,1,13,0.10
2013-4-10,60,48,44,51,45,41,96,88,71,30.00,29.86,4,0,0,0.19
2013-4-11,52,46,39,48,41,32,97,85,53,30.12,29.83,1,0,11,0.17
2013-4-12,40,36,34,37,33,27,96,88,59,30.19,29.84,2,1,10,0.46
2013-4-13,54,42,34,41,37,33,100,85,58,29.90,29.76,2,0,8,0.12
2013-4-14,55,46,39,40,36,30,95,70,44,30.17,29.90,3,1,12,0.01
2013-4-15,56,44,29,38,34,28,94,70,44,30.37,30.17,3,1,11,0.00
2013-4-16,68,50,32,51,40,30,96,73,46,30.39,30.00,8,3,22,0.00
2013-4-17,68,57,44,53,37,29,84,52,25,30.30,30.00,5,2,16,0.00
2013-4-18,59,46,31,41,34,29,91,65,39,30.43,30.15,9,1,9,0.00
2013-4-19,76,60,52,60,52,39,94,75,56,30.15,29.74,16,3,16,0.00
2013-4-20,68,54,45,63,42,25,95,68,38,30.13,29.56,6,2,16,0.48
2013-4-21,58,43,31,30,24,20,78,49,23,30.66,30.15,3,1,16,0.00
2013-4-22,52,40,28,35,28,23,90,67,34,30.78,30.61,3,1,13,0.00
2013-4-23,41,37,31,40,34,29,95,90,83,30.62,30.32,5,0,5,0.03
2013-4-24,75,55,41,55,47,40,96,77,46,30.18,29.75,4,1,13,0.01
2013-4-25,67,57,45,51,38,27,91,53,25,30.23,29.77,5,2,16,0.02
2013-4-26,61,48,32,39,33,28,85,60,35,30.41,30.24,3,1,11,0.00
2013-4-27,66,50,32,42,36,30,95,63,34,30.41,30.27,2,1,10,0.00
2013-4-28,68,51,34,43,37,32,93,62,35,30.33,30.21,3,1,12,0.00
2013-4-29,70,52,38,50,41,35,90,70,40,30.25,30.15,7,1,0,0.00
2013-4-30,72,56,38,40,34,30,85,48,24,30.34,30.22,2,1,9,0.00
2013-5-1,72,54,33,41,34,30,91,54,25,30.45,30.35,2,1,8,0.00
2013-5-2,77,53,37,47,39,35,91,65,24,30.49,30.34,3,1,14,0.00
2013-5-3,63,50,38,46,40,35,94,72,50,30.52,30.38,2,1,10,0.00
2013-5-4,63,50,36,46,40,34,96,71,39,30.38,30.29,8,1,0,0.00
2013-5-21,64,57,50,60,55,48,96,91,81,30.00,29.90,1,0,11,0.05
2013-5-22,58,53,50,56,52,48,97,94,87,30.04,29.88,1,0,7,1.31
2013-5-23,74,60,52,70,59,51,98,95,83,29.94,29.79,2,0,7,0.41
2013-5-24,71,64,52,68,62,50,98,93,79,29.81,29.62,2,0,11,1.34
2013-5-25,52,49,41,51,48,40,100,96,95,29.82,29.67,1,1,12,0.97
2013-5-26,61,48,38,46,40,37,96,79,56,30.03,29.66,3,1,19,0.20
2013-5-27,73,55,38,46,40,36,95,64,28,30.14,30.04,2,1,12,0.00
2013-5-28,74,55,39,51,43,37,96,70,32,30.22,30.14,5,0,7,0.00
2013-5-29,63,56,49,61,54,47,97,95,89,30.17,29.97,1,0,2,0.37
2013-5-30,90,73,57,72,64,56,99,78,42,30.04,29.96,7,0,0,0.00
2013-5-31,92,71,64,73,66,62,96,86,50,30.05,29.99,3,0,0,0.00
2013-6-1,95,80,65,71,67,62,96,67,36,29.93,29.79,2,0,10,0.00
2013-6-2,92,79,68,73,68,65,95,71,42,29.83,29.66,4,1,15,0.09
2013-6-3,78,69,61,69,63,49,97,83,53,29.82,29.70,1,0,6,0.14
2013-6-4,72,61,50,50,47,43,82,61,39,30.05,29.78,10,1,10,0.00
2013-6-5,79,62,50,54,47,40,86,63,28,30.16,30.05,8,0,8,0.00
2013-6-6,75,61,51,58,53,49,94,76,51,30.17,30.09,4,0,5,0.00
2013-6-7,58,55,53,55,53,51,100,94,86,30.11,30.00,4,0,0,0.30
2013-6-8,55,53,52,54,52,51,100,97,97,29.87,29.63,1,0,6,0.93